Date String (YYYY-MM-DD hh:mm:ss) UTC,Instrument flags,absolute air pressure of the measurement (hPa),sample flow rate (lpm),inlet stack bypass flow (lpm),air temperature of the measurement (°C),ambient temperature measured by the external sensor (°C),aerosol sample conditioner tube jacket temperature (°C),OPC LED temperature (°C),internal box temperature (°C),relative humidity of the measurement (%),span deviation,mass concentration of particles derived from Lorenz-Mie calculation of OPC scattering (μg/m³),mass concentration of particles derived from Lorenz-Mie calculation of OPC scattering (μg/m³),mass concentration of particles derived from Lorenz-Mie calculation of OPC scattering (μg/m³)
DateTimeUTC,F1_M11,P_M11,Q1_M11,Q2_M11,T1_M11,T2_M11,T3_M11,T4_M11,T5_M11,U1_M11,ZSPAN_M11,X0_M11,X2_M11,X1_M11
2024-06-15 03:00:00,SystemResetWarning,0827.4,4.99,000.00,029.8,029.2,000.0,037.9,031.6,026.2,0000.5,0015.07,0007.12,0006.02
2024-06-15 03:01:00,SystemResetWarning,0827.4,5.00,000.00,029.8,029.3,000.0,038.0,031.7,026.0,0000.0,0014.82,0007.04,0005.94
2024-06-15 03:02:00,SystemResetWarning,0827.4,5.00,000.00,029.9,029.4,000.0,038.0,031.7,025.3,0000.0,0014.66,0007.01,0005.88
2024-06-15 03:03:00,SystemResetWarning,0827.5,5.00,000.00,030.0,029.5,000.0,038.0,031.8,025.0,0000.0,0014.68,0006.97,0005.85
2024-06-15 03:04:00,SystemResetWarning,0827.6,5.00,000.00,030.0,029.5,000.0,038.1,031.8,024.6,0000.0,0013.79,0006.93,0005.83
2024-06-15 03:05:00,SystemResetWarning,0827.5,5.00,000.00,030.1,029.6,000.0,038.1,031.9,024.7,0000.0,0013.62,0006.89,0005.80
2024-06-15 03:06:00,SystemResetWarning,0827.5,4.99,000.00,030.0,028.7,000.0,038.2,031.4,025.1,0000.0,0013.57,0006.84,0005.76
2024-06-15 03:07:00,SystemResetWarning,0827.4,5.01,000.00,029.7,026.6,000.0,038.2,030.5,026.5,0000.0,0013.66,0006.88,0005.76
2024-06-15 03:08:00,SystemResetWarning,0827.4,5.01,000.00,029.4,026.4,000.0,038.2,030.3,027.5,0000.0,0013.85,0006.93,0005.78
2024-06-15 03:09:00,SystemResetWarning,0827.5,4.99,000.00,029.3,026.7,000.0,038.1,030.4,027.3,0000.0,0013.87,0006.99,0005.83
2024-06-15 03:10:00,SystemResetWarning,0827.5,5.00,000.00,029.3,027.2,000.0,038.0,030.6,027.5,0000.0,0014.42,0007.08,0005.86
2024-06-15 03:11:00,SystemResetWarning,0827.5,5.01,000.00,029.3,027.6,000.0,037.9,030.8,027.4,0000.0,0014.51,0007.07,0005.86
2024-06-15 03:12:00,SystemResetWarning,0827.6,5.00,000.00,029.4,027.9,000.0,037.9,031.0,027.6,0000.0,0014.21,0007.02,0005.87
2024-06-15 03:13:00,SystemResetWarning,0827.7,5.00,000.00,029.4,028.2,000.0,037.9,031.1,028.2,0000.0,0013.99,0006.97,0005.89
2024-06-15 03:14:00,SystemResetWarning,0827.7,5.00,000.00,029.5,028.4,000.0,037.9,031.2,028.0,0000.0,0013.39,0006.95,0005.92
2024-06-15 03:15:00,SystemResetWarning,0827.7,5.00,000.00,029.5,028.6,000.0,037.9,031.3,028.2,0000.0,0013.76,0006.98,0005.96
2024-06-15 03:16:00,SystemResetWarning,0827.7,5.00,000.00,029.6,028.8,000.0,037.9,031.4,028.2,0000.0,0013.71,0007.00,0006.02
2024-06-15 03:17:00,SystemResetWarning,0827.7,5.00,000.00,029.7,028.9,000.0,037.9,031.5,027.8,0000.0,0014.24,0007.11,0006.09
2024-06-15 03:18:00,SystemResetWarning,0827.8,5.00,000.00,029.7,029.1,000.0,037.9,031.5,027.7,0000.0,0014.34,0007.20,0006.14
2024-06-15 03:19:00,SystemResetWarning,0827.8,4.99,000.00,029.8,029.2,000.0,037.9,031.6,026.6,0000.0,0014.98,0007.25,0006.15
2024-06-15 03:20:00,SystemResetWarning,0827.8,5.00,000.00,029.8,029.3,000.0,038.0,031.7,027.1,0000.0,0015.49,0007.27,0006.14
2024-06-15 03:21:00,SystemResetWarning,0827.8,5.00,000.00,029.9,029.4,000.0,038.0,031.7,027.1,0000.0,0015.14,0007.26,0006.14
2024-06-15 03:22:00,SystemResetWarning,0827.7,5.00,000.00,029.9,029.5,000.0,038.0,031.8,026.1,0000.0,0014.92,0007.30,0006.15
2024-06-15 03:23:00,SystemResetWarning,0827.7,5.00,000.00,030.0,029.5,000.0,038.1,031.8,026.0,0000.0,0015.18,0007.34,0006.13
2024-06-15 03:24:00,SystemResetWarning,0827.8,5.00,000.00,030.1,029.6,000.0,038.1,031.9,025.8,0000.0,0015.42,0007.37,0006.12
2024-06-15 03:25:00,SystemResetWarning,0827.8,5.00,000.00,030.1,029.7,000.0,038.1,031.9,025.7,0000.0,0015.44,0007.35,0006.09
2024-06-15 03:26:00,SystemResetWarning,0827.9,5.00,000.00,030.1,029.3,000.0,038.2,031.7,025.3,0000.0,0015.31,0007.34,0006.05
2024-06-15 03:27:00,SystemResetWarning,0827.8,5.01,000.00,029.8,027.0,000.0,038.3,030.7,025.6,0000.0,0015.27,0007.31,0006.00
2024-06-15 03:28:00,SystemResetWarning,0827.8,5.02,000.00,029.5,026.3,000.0,038.3,030.3,026.5,0000.0,0014.91,0007.21,0005.94
2024-06-15 03:29:00,SystemResetWarning,0827.8,4.99,000.00,029.3,026.6,000.0,038.2,030.3,025.8,0000.0,0015.05,0007.13,0005.91
2024-06-15 03:30:00,SystemResetWarning,0827.8,5.00,000.00,029.3,027.1,000.0,038.1,030.6,024.9,0000.0,0014.12,0007.02,0005.86
2024-06-15 03:31:00,SystemResetWarning,0827.8,5.01,000.00,029.4,027.5,000.0,038.0,030.8,025.1,0000.0,0013.36,0006.92,0005.81
2024-06-15 03:32:00,SystemResetWarning,0827.9,5.00,000.00,029.4,027.8,000.0,037.9,031.0,027.5,0000.0,0013.16,0006.86,0005.76
2024-06-15 03:33:00,SystemResetWarning,0827.8,5.00,000.00,029.5,028.1,000.0,037.9,031.1,027.3,0000.0,0013.22,0006.85,0005.74
2024-06-15 03:34:00,SystemResetWarning,0827.8,5.00,000.00,029.5,028.4,000.0,037.9,031.2,026.8,0000.0,0013.41,0006.86,0005.76
2024-06-15 03:35:00,SystemResetWarning,0827.9,5.00,000.00,029.6,028.6,000.0,037.9,031.3,026.7,0000.0,0013.20,0006.84,0005.76
2024-06-15 03:36:00,SystemResetWarning,0827.9,5.01,000.00,029.6,028.8,000.0,037.9,031.4,028.2,0000.0,0013.26,0006.84,0005.74
2024-06-15 03:37:00,SystemResetWarning,0827.9,5.00,000.00,029.7,028.9,000.0,037.9,031.4,027.5,0000.0,0013.20,0006.85,0005.77
2024-06-15 03:38:00,SystemResetWarning,0827.9,4.99,000.00,029.7,029.0,000.0,037.9,031.5,027.2,0000.0,0012.66,0006.81,0005.78
2024-06-15 03:39:00,SystemResetWarning,0827.8,4.99,000.00,029.8,029.1,000.0,037.9,031.6,027.6,0000.1,0012.59,0006.84,0005.79
2024-06-15 03:40:00,SystemResetWarning,0827.9,5.00,000.00,029.8,029.2,000.0,038.0,031.6,027.6,0000.2,0012.39,0006.84,0005.81
2024-06-15 03:41:00,SystemResetWarning,0827.9,5.00,000.00,029.9,029.3,000.0,038.0,031.7,027.4,0000.6,0013.55,0006.90,0005.82
2024-06-15 03:42:00,SystemResetWarning,0828.0,5.00,000.00,029.9,029.4,000.0,038.0,031.8,027.4,0001.1,0013.69,0006.97,0005.85
2024-06-15 03:43:00,SystemResetWarning,0827.9,5.01,000.00,030.0,029.5,000.0,038.1,031.8,026.9,0001.2,0013.74,0007.02,0005.88
2024-06-15 03:44:00,SystemResetWarning,0827.9,5.00,000.00,030.0,029.5,000.0,038.1,031.8,027.0,0001.4,0013.75,0006.93,0005.85
2024-06-15 03:45:00,SystemResetWarning,0827.8,5.01,000.00,030.1,029.6,000.0,038.1,031.9,026.6,0001.0,0013.79,0006.83,0005.81
2024-06-15 03:46:00,SystemResetWarning,0827.8,5.00,000.00,030.1,029.6,000.0,038.2,031.9,025.7,0001.0,0014.38,0006.75,0005.78
2024-06-15 03:47:00,SystemResetWarning,0827.8,5.00,000.00,030.2,029.7,000.0,038.2,032.0,025.5,0002.4,0014.22,0006.70,0005.75
2024-06-15 03:48:00,SystemResetWarning,0827.8,4.99,000.00,030.2,029.7,000.0,038.3,031.9,025.9,0001.5,0013.94,0006.61,0005.68
2024-06-15 03:49:00,SystemResetWarning,0827.8,4.98,000.00,030.0,027.8,000.0,038.3,031.1,025.5,0000.4,0014.17,0006.61,0005.64
2024-06-15 03:50:00,SystemResetWarning,0827.8,5.02,000.00,029.7,026.4,000.0,038.3,030.4,026.1,0000.3,0013.87,0006.52,0005.59
2024-06-15 03:51:00,SystemResetWarning,0827.8,5.01,000.00,029.5,026.4,000.0,038.3,030.3,026.9,0000.0,0013.72,0006.46,0005.53
2024-06-15 03:52:00,SystemResetWarning,0827.8,5.00,000.00,029.4,026.8,000.0,038.1,030.5,027.1,0000.0,0013.15,0006.43,0005.49
2024-06-15 03:53:00,SystemResetWarning,0827.8,5.00,000.00,029.4,027.2,000.0,038.1,030.7,025.7,0000.0,0013.61,0006.36,0005.44
2024-06-15 03:54:00,SystemResetWarning,0827.8,5.00,000.00,029.4,027.6,000.0,038.0,030.9,025.2,0000.0,0015.08,0006.24,0005.38
2024-06-15 03:55:00,SystemResetWarning,0827.8,5.00,000.00,029.5,027.9,000.0,037.9,031.0,025.4,0000.0,0015.23,0006.19,0005.32
2024-06-15 03:56:00,SystemResetWarning,0827.9,4.99,000.00,029.5,028.2,000.0,037.9,031.2,026.4,0000.0,0014.74,0006.14,0005.26
2024-06-15 03:57:00,SystemResetWarning,0827.8,5.00,000.00,029.5,028.4,000.0,037.9,031.2,026.5,0000.0,0014.79,0006.12,0005.23
2024-06-15 03:58:00,SystemResetWarning,0827.8,5.00,000.00,029.6,028.6,000.0,037.9,031.3,026.3,0000.0,0015.72,0006.11,0005.21
2024-06-15 03:59:00,SystemResetWarning,0827.8,5.00,000.00,029.6,028.8,000.0,037.9,031.4,025.7,0000.0,0015.80,0006.08,0005.18
